• In Netherlands
  • List of Countries
  • For 7 days
  • Water Temperature
  • Satellite Maps
  • Weather Map
  • Weather Widgets
  • user-avatar
    Login

    Hourly Weather Zlotniczki

    Today, 24 October, Wednesday

    Time Temperature Precipitation Wind Pressure Humidity
    00:00 +7°C° 0.3 mm 9 mps 740 mmHg 75%
    01:00 +7°C° 0.3 mm 9 mps 739 mmHg 74%
    02:00 +6°C° 0.1 mm 9 mps 740 mmHg 73%
    03:00 +6°C° 0.1 mm 9 mps 740 mmHg 71%
    04:00 +5°C° 0.1 mm 9 mps 740 mmHg 69%
    05:00 +5°C° 0 mm 8 mps 741 mmHg 68%
    06:00 +4°C° 0 mm 7 mps 742 mmHg 67%
    07:00 +4°C° 0 mm 7 mps 743 mmHg 65%
    08:00 +5°C° 0 mm 8 mps 743 mmHg 59%
    09:00 +5°C° 0 mm 9 mps 744 mmHg 52%
    10:00 +6°C° 0 mm 10 mps 745 mmHg 45%
    11:00 +7°C° 0 mm 10 mps 745 mmHg 43%
    12:00 +7°C° 0 mm 10 mps 746 mmHg 42%
    13:00 +7°C° 0 mm 10 mps 746 mmHg 40%
    14:00 +7°C° 0 mm 9 mps 747 mmHg 42%
    15:00 +6°C° 0 mm 8 mps 747 mmHg 44%
    16:00 +6°C° 0 mm 7 mps 748 mmHg 47%
    17:00 +5°C° 0 mm 6 mps 748 mmHg 50%
    18:00 +5°C° 0 mm 6 mps 749 mmHg 53%
    19:00 +5°C° 0 mm 5 mps 749 mmHg 56%
    20:00 +5°C° 0 mm 5 mps 749 mmHg 59%
    21:00 +3°C° 0 mm 5 mps 750 mmHg 63%
    22:00 +3°C° 0 mm 5 mps 750 mmHg 67%
    23:00 +3°C° 0 mm 5 mps 750 mmHg 69%

    Tomorrow, 25 October, Thursday

    Time Temperature Precipitation Wind Pressure Humidity
    00:00 +3°C° 0 mm 5 mps 750 mmHg 72%
    01:00 +2°C° 0 mm 5 mps 749 mmHg 75%
    02:00 +3°C° 0.1 mm 5 mps 749 mmHg 77%
    03:00 +3°C° 0.1 mm 5 mps 748 mmHg 80%
    04:00 +3°C° 0.1 mm 5 mps 747 mmHg 82%
    05:00 +4°C° 0.7 mm 6 mps 746 mmHg 85%
    06:00 +5°C° 0.7 mm 6 mps 745 mmHg 88%
    07:00 +6°C° 0.7 mm 7 mps 745 mmHg 91%
    08:00 +7°C° 0.3 mm 8 mps 744 mmHg 88%
    09:00 +9°C° 0.3 mm 8 mps 744 mmHg 86%
    10:00 +10°C° 0.3 mm 9 mps 744 mmHg 83%
    11:00 +10°C° 0.2 mm 9 mps 743 mmHg 82%
    12:00 +10°C° 0.2 mm 9 mps 743 mmHg 81%
    13:00 +10°C° 0.2 mm 9 mps 743 mmHg 80%
    14:00 +10°C° 0.2 mm 9 mps 744 mmHg 77%
    15:00 +10°C° 0.2 mm 9 mps 744 mmHg 74%
    16:00 +9°C° 0.2 mm 8 mps 744 mmHg 72%
    17:00 +9°C° 0 mm 8 mps 744 mmHg 72%
    18:00 +8°C° 0 mm 7 mps 745 mmHg 73%
    19:00 +6°C° 0 mm 7 mps 745 mmHg 74%
    20:00 +7°C° 0 mm 6 mps 745 mmHg 75%
    21:00 +7°C° 0 mm 6 mps 745 mmHg 77%
    22:00 +7°C° 0 mm 6 mps 746 mmHg 78%
    23:00 +5°C° 0 mm 6 mps 746 mmHg 79%

    Day after tomorrow, 26 October, Friday

    Time Temperature Precipitation Wind Pressure Humidity
    00:00 +5°C° 0 mm 6 mps 746 mmHg 81%
    01:00 +6°C° 0 mm 5 mps 746 mmHg 82%
    02:00 +6°C° 0 mm 5 mps 746 mmHg 82%
    03:00 +6°C° 0 mm 5 mps 745 mmHg 82%
    04:00 +6°C° 0 mm 5 mps 745 mmHg 82%
    05:00 +6°C° 0 mm 5 mps 745 mmHg 83%
    06:00 +5°C° 0 mm 4 mps 745 mmHg 84%
    07:00 +5°C° 0 mm 4 mps 745 mmHg 86%
    08:00 +6°C° 0 mm 4 mps 745 mmHg 82%
    09:00 +7°C° 0 mm 4 mps 744 mmHg 79%
    10:00 +9°C° 0 mm 5 mps 744 mmHg 75%
    11:00 +9°C° 0.3 mm 5 mps 744 mmHg 78%
    12:00 +9°C° 0.3 mm 6 mps 743 mmHg 81%
    13:00 +10°C° 0.3 mm 6 mps 742 mmHg 83%
    14:00 +10°C° 0.1 mm 6 mps 742 mmHg 81%
    15:00 +10°C° 0.1 mm 6 mps 741 mmHg 80%
    16:00 +10°C° 0.1 mm 6 mps 741 mmHg 78%
    17:00 +10°C° 0.1 mm 6 mps 740 mmHg 77%
    18:00 +9°C° 0.1 mm 7 mps 740 mmHg 76%
    19:00 +9°C° 0.1 mm 7 mps 740 mmHg 75%
    20:00 +8°C° 0 mm 7 mps 740 mmHg 76%
    21:00 +7°C° 0 mm 8 mps 739 mmHg 76%
    22:00 +7°C° 0 mm 8 mps 739 mmHg 76%
    23:00 +6°C° 0 mm 8 mps 740 mmHg 75%

    27 October, Saturday

    Time Temperature Precipitation Wind Pressure Humidity
    00:00 +5°C° 0 mm 8 mps 740 mmHg 74%
    01:00 +5°C° 0 mm 8 mps 740 mmHg 72%
    02:00 +5°C° 0.1 mm 8 mps 740 mmHg 73%
    03:00 +5°C° 0.1 mm 8 mps 741 mmHg 73%
    04:00 +5°C° 0.1 mm 8 mps 741 mmHg 74%
    05:00 +4°C° 0 mm 8 mps 742 mmHg 76%
    06:00 +4°C° 0 mm 7 mps 742 mmHg 78%
    07:00 +3°C° 0 mm 7 mps 743 mmHg 80%
    08:00 +4°C° 0 mm 7 mps 744 mmHg 77%
    09:00 +4°C° 0 mm 7 mps 744 mmHg 75%
    10:00 +4°C° 0 mm 6 mps 745 mmHg 72%
    11:00 +5°C° 0 mm 6 mps 745 mmHg 69%
    12:00 +6°C° 0 mm 5 mps 746 mmHg 66%
    13:00 +7°C° 0 mm 5 mps 746 mmHg 63%
    14:00 +6°C° 0 mm 4 mps 747 mmHg 64%
    15:00 +7°C° 0 mm 3 mps 747 mmHg 64%
    16:00 +7°C° 0 mm 2 mps 747 mmHg 65%
    17:00 +6°C° 0 mm 2 mps 748 mmHg 67%
    18:00 +6°C° 0 mm 2 mps 748 mmHg 69%
    19:00 +6°C° 0 mm 1 mps 749 mmHg 71%
    20:00 +6°C° 0 mm 1 mps 749 mmHg 72%
    21:00 +6°C° 0 mm 1 mps 750 mmHg 72%
    22:00 +5°C° 0 mm 1 mps 750 mmHg 73%
    23:00 +4°C° 0 mm 2 mps 750 mmHg 74%

    28 October, Sunday

    Time Temperature Precipitation Wind Pressure Humidity
    00:00 +4°C° 0 mm 2 mps 750 mmHg 75%
    01:00 +3°C° 0 mm 2 mps 751 mmHg 76%
    02:00 +3°C° 0 mm 2 mps 751 mmHg 76%
    03:00 +3°C° 0 mm 2 mps 751 mmHg 77%
    04:00 +3°C° 0 mm 2 mps 751 mmHg 78%
    05:00 +3°C° 0 mm 2 mps 751 mmHg 78%
    06:00 +3°C° 0 mm 2 mps 752 mmHg 77%
    07:00 +2°C° 0 mm 3 mps 752 mmHg 77%
    08:00 +3°C° 0 mm 3 mps 752 mmHg 73%
    09:00 +4°C° 0 mm 4 mps 752 mmHg 69%
    10:00 +4°C° 0 mm 4 mps 753 mmHg 66%
    11:00 +5°C° 0 mm 5 mps 752 mmHg 64%
    12:00 +5°C° 0 mm 5 mps 752 mmHg 63%
    13:00 +6°C° 0 mm 5 mps 752 mmHg 62%
    14:00 +5°C° 0.1 mm 5 mps 752 mmHg 63%
    15:00 +5°C° 0.1 mm 5 mps 752 mmHg 64%
    16:00 +5°C° 0.1 mm 5 mps 752 mmHg 65%
    17:00 +4°C° 0.2 mm 6 mps 752 mmHg 66%
    18:00 +3°C° 0.2 mm 6 mps 752 mmHg 67%
    19:00 +3°C° 0.2 mm 6 mps 752 mmHg 68%
    20:00 +3°C° 0.3 mm 7 mps 752 mmHg 69%
    21:00 +3°C° 0.3 mm 7 mps 751 mmHg 70%
    22:00 +2°C° 0.3 mm 8 mps 751 mmHg 71%
    23:00 +2°C° 0.7 mm 8 mps 751 mmHg 73%

    29 October, Monday

    Time Temperature Precipitation Wind Pressure Humidity
    00:00 +2°C° 0.7 mm 9 mps 750 mmHg 74%
    01:00 +2°C° 0.7 mm 9 mps 750 mmHg 76%
    02:00 +1°C° 1.6 mm 10 mps 749 mmHg 77%
    03:00 +1°C° 1.6 mm 10 mps 748 mmHg 78%
    04:00 +1°C° 1.6 mm 11 mps 748 mmHg 79%
    05:00 +1°C° 1.3 mm 10 mps 747 mmHg 79%
    06:00 +1°C° 1.3 mm 10 mps 746 mmHg 80%
    07:00 +1°C° 1.3 mm 10 mps 746 mmHg 81%
    08:00 +1°C° 1.4 mm 10 mps 746 mmHg 82%
    09:00 +1°C° 1.4 mm 10 mps 745 mmHg 83%
    10:00 +1°C° 1.4 mm 9 mps 745 mmHg 83%
    11:00 +1°C° 0.3 mm 9 mps 744 mmHg 84%
    12:00 +1°C° 0.3 mm 9 mps 744 mmHg 84%
    13:00 +2°C° 0.3 mm 9 mps 743 mmHg 85%
    14:00 +1°C° 0.3 mm 8 mps 743 mmHg 86%
    15:00 +1°C° 0.3 mm 8 mps 743 mmHg 86%
    16:00 +1°C° 0.3 mm 8 mps 742 mmHg 87%
    17:00 +2°C° 0.1 mm 8 mps 742 mmHg 88%
    18:00 +3°C° 0.1 mm 7 mps 742 mmHg 88%
    19:00 +3°C° 0.1 mm 7 mps 742 mmHg 89%
    20:00 +3°C° 0.1 mm 7 mps 742 mmHg 90%
    21:00 +3°C° 0.1 mm 7 mps 742 mmHg 90%
    22:00 +3°C° 0.1 mm 7 mps 742 mmHg 91%
    23:00 +4°C° 0.1 mm 6 mps 742 mmHg 92%

    30 October, Tuesday

    Time Temperature Precipitation Wind Pressure Humidity
    00:00 +4°C° 0.1 mm 6 mps 741 mmHg 92%
    01:00 +5°C° 0.1 mm 6 mps 741 mmHg 93%
    02:00 +5°C° 0.1 mm 6 mps 741 mmHg 94%
    03:00 +7°C° 0.1 mm 6 mps 740 mmHg 94%
    04:00 +7°C° 0.1 mm 6 mps 740 mmHg 94%
    05:00 +8°C° 0.7 mm 7 mps 739 mmHg 94%
    06:00 +8°C° 0.7 mm 7 mps 739 mmHg 93%
    07:00 +9°C° 0.7 mm 8 mps 739 mmHg 93%
    08:00 +10°C° 0.1 mm 7 mps 739 mmHg 89%
    09:00 +11°C° 0.1 mm 7 mps 739 mmHg 84%
    10:00 +14°C° 0.1 mm 7 mps 739 mmHg 80%
    11:00 +14°C° 0.2 mm 7 mps 739 mmHg 79%
    12:00 +14°C° 0.2 mm 6 mps 740 mmHg 77%
    13:00 +14°C° 0.2 mm 5 mps 740 mmHg 76%
    14:00 +13°C° 0 mm 4 mps 741 mmHg 78%
    15:00 +12°C° 0 mm 3 mps 741 mmHg 80%
    16:00 +12°C° 0 mm 2 mps 742 mmHg 83%
    17:00 +10°C° 0 mm 2 mps 742 mmHg 83%
    18:00 +9°C° 0 mm 2 mps 743 mmHg 83%
    19:00 +9°C° 0 mm 2 mps 743 mmHg 84%
    20:00 +8°C° 0 mm 3 mps 743 mmHg 82%
    21:00 +8°C° 0 mm 3 mps 744 mmHg 81%
    22:00 +8°C° 0 mm 3 mps 744 mmHg 80%
    23:00 +7°C° 0.1 mm 3 mps 744 mmHg 79%
    Show more